Date String (YYYY-MM-DD hh:mm:ss) UTC,Instrument flags,absolute air pressure of the measurement (hPa),sample flow rate (lpm),inlet stack bypass flow (lpm),air temperature of the measurement (°C),ambient temperature measured by the external sensor (°C),aerosol sample conditioner tube jacket temperature (°C),OPC LED temperature (°C),internal box temperature (°C),relative humidity of the measurement (%),span deviation,mass concentration of particles derived from Lorenz-Mie calculation of OPC scattering (μg/m³),mass concentration of particles derived from Lorenz-Mie calculation of OPC scattering (μg/m³),mass concentration of particles derived from Lorenz-Mie calculation of OPC scattering (μg/m³)
DateTimeUTC,F1_M11,P_M11,Q1_M11,Q2_M11,T1_M11,T2_M11,T3_M11,T4_M11,T5_M11,U1_M11,ZSPAN_M11,X2_M11,X0_M11,X1_M11
2023-11-04 14:00:00,SystemResetWarning,0834.7,4.99,000.00,025.5,024.3,000.0,033.9,026.9,18.1,0000.0,0003.10,0008.45,0002.13
2023-11-04 14:01:00,SystemResetWarning,0834.7,4.99,000.00,025.5,024.4,000.0,033.9,026.9,18.2,0000.0,0003.11,0008.67,0002.14
2023-11-04 14:02:00,SystemResetWarning,0834.5,5.01,000.00,025.5,024.4,000.0,033.9,026.9,18.5,0000.0,0003.09,0008.97,0002.15
2023-11-04 14:03:00,SystemResetWarning,0834.7,5.01,000.00,025.5,024.4,000.0,033.9,026.9,18.6,0000.0,0003.01,0008.96,0002.14
2023-11-04 14:04:00,SystemResetWarning,0834.7,5.00,000.00,025.5,024.4,000.0,033.9,026.9,18.7,0000.0,0003.01,0009.21,0002.15
2023-11-04 14:05:00,SystemResetWarning,0834.6,5.00,000.00,025.5,024.5,000.0,033.9,027.0,18.7,0000.0,0003.04,0009.16,0002.16
2023-11-04 14:06:00,SystemResetWarning,0835.0,4.99,000.00,025.5,024.5,000.0,033.9,027.0,18.6,0000.0,0003.12,0009.46,0002.19
2023-11-04 14:07:00,SystemResetWarning,0834.9,5.00,000.00,025.6,024.6,000.0,033.9,027.0,18.6,0000.0,0003.17,0009.60,0002.26
2023-11-04 14:08:00,SystemResetWarning,0834.7,5.00,000.00,025.6,024.6,000.0,033.9,027.1,18.5,0000.0,0003.22,0009.31,0002.31
2023-11-04 14:09:00,SystemResetWarning,0834.8,5.01,000.00,025.6,024.6,000.0,033.9,027.0,18.5,0000.0,0003.24,0008.68,0002.33
2023-11-04 14:10:00,SystemResetWarning,0834.7,5.01,000.00,025.6,024.6,000.0,033.9,027.0,18.6,0000.0,0003.26,0008.65,0002.36
2023-11-04 14:11:00,SystemResetWarning,0834.7,5.00,000.00,025.6,024.6,000.0,033.9,027.1,18.5,0000.0,0003.25,0009.01,0002.39
2023-11-04 14:12:00,SystemResetWarning,0834.7,4.99,000.00,025.6,024.7,000.0,033.9,027.1,18.5,0000.0,0003.27,0009.00,0002.42
2023-11-04 14:13:00,SystemResetWarning,0834.7,5.00,000.00,025.6,024.7,000.0,033.9,027.1,18.4,0000.0,0003.30,0008.59,0002.47
2023-11-04 14:14:00,SystemResetWarning,0834.7,5.00,000.00,025.6,024.7,000.0,034.0,027.1,18.4,0000.0,0003.28,0008.56,0002.50
2023-11-04 14:15:00,SystemResetWarning,0834.7,5.00,000.00,025.6,024.7,000.0,034.0,027.1,18.4,0000.0,0003.29,0008.32,0002.51
2023-11-04 14:16:00,SystemResetWarning,0834.7,5.00,000.00,025.6,024.7,000.0,034.0,027.1,18.4,0000.0,0003.26,0008.25,0002.51
2023-11-04 14:17:00,SystemResetWarning,0834.7,5.01,000.00,025.6,024.7,000.0,034.0,027.1,18.3,0000.0,0003.22,0008.01,0002.50
2023-11-04 14:18:00,SystemResetWarning,0834.9,5.01,000.00,025.6,024.7,000.0,034.0,027.1,18.3,0000.0,0003.17,0007.45,0002.45
2023-11-04 14:19:00,SystemResetWarning,0834.8,5.00,000.00,025.6,024.7,000.0,034.0,027.1,18.3,0000.0,0003.15,0007.56,0002.41
2023-11-04 14:20:00,SystemResetWarning,0834.8,5.00,000.00,025.7,024.7,000.0,034.0,027.1,18.4,0000.0,0003.16,0007.67,0002.43
2023-11-04 14:21:00,SystemResetWarning,0835.3,4.99,000.00,025.7,024.7,000.0,034.0,027.1,18.5,0000.0,0003.19,0007.80,0002.44
2023-11-04 14:22:00,SystemResetWarning,0835.1,5.00,000.00,025.7,024.7,000.0,034.0,027.1,18.5,0000.0,0003.24,0007.74,0002.47
2023-11-04 14:23:00,SystemResetWarning,0834.9,5.02,000.00,025.7,024.7,000.0,034.0,027.1,18.5,0000.0,0003.27,0007.69,0002.49
2023-11-04 14:24:00,SystemResetWarning,0834.9,5.00,000.00,025.7,024.7,000.0,034.0,027.1,18.5,0000.0,0003.26,0007.74,0002.47
2023-11-04 14:25:00,SystemResetWarning,0834.9,4.99,000.00,025.7,024.7,000.0,034.0,027.1,18.5,0000.0,0003.28,0007.05,0002.50
2023-11-04 14:26:00,SystemResetWarning,0835.3,4.98,000.00,025.7,024.8,000.0,034.0,027.2,18.5,0000.0,0003.29,0007.34,0002.55
2023-11-04 14:27:00,SystemResetWarning,0835.3,5.00,000.00,025.7,024.8,000.0,034.0,027.2,18.5,0000.0,0003.30,0007.41,0002.59
2023-11-04 14:28:00,SystemResetWarning,0835.0,5.01,000.00,025.7,024.8,000.0,034.0,027.2,18.4,0000.0,0003.34,0007.93,0002.69
2023-11-04 14:29:00,SystemResetWarning,0835.2,5.01,000.00,025.7,024.8,000.0,034.0,027.2,18.5,0000.0,0003.39,0008.65,0002.77
2023-11-04 14:30:00,SystemResetWarning,0835.3,5.00,000.00,025.7,024.9,000.0,034.0,027.3,18.6,0000.0,0003.46,0008.63,0002.86
2023-11-04 14:31:00,SystemResetWarning,0834.9,4.99,000.00,025.8,024.9,000.0,034.1,027.2,18.6,0000.0,0003.50,0008.53,0002.91
2023-11-04 14:32:00,SystemResetWarning,0835.0,4.99,000.00,025.8,024.9,000.0,034.1,027.3,18.6,0000.0,0003.50,0008.51,0002.96
2023-11-04 14:33:00,SystemResetWarning,0835.0,5.00,000.00,025.8,024.9,000.0,034.1,027.3,18.7,0000.0,0003.51,0008.33,0002.98
2023-11-04 14:34:00,SystemResetWarning,0835.0,5.01,000.00,025.8,024.9,000.0,034.1,027.3,18.7,0000.0,0003.56,0009.10,0003.00
2023-11-04 14:35:00,SystemResetWarning,0835.1,5.00,000.00,025.8,024.9,000.0,034.1,027.3,18.9,0000.0,0003.57,0010.17,0003.02
2023-11-04 14:36:00,SystemResetWarning,0835.1,5.00,000.00,025.8,024.9,000.0,034.1,027.3,19.6,0000.0,0003.55,0010.71,0002.98
2023-11-04 14:37:00,SystemResetWarning,0835.1,5.00,000.00,025.8,024.9,000.0,034.1,027.3,19.7,0000.0,0003.54,0010.68,0002.93
2023-11-04 14:38:00,SystemResetWarning,0835.1,5.00,000.00,025.8,024.9,000.0,034.1,027.3,19.5,0000.0,0003.53,0010.63,0002.89
2023-11-04 14:39:00,SystemResetWarning,0835.2,5.00,000.00,025.8,024.9,000.0,034.1,027.3,19.0,0000.0,0003.51,0010.30,0002.83
2023-11-04 14:40:00,SystemResetWarning,0835.2,5.00,000.00,025.8,025.0,000.0,034.1,027.3,19.3,0000.0,0003.47,0010.09,0002.75
2023-11-04 14:41:00,SystemResetWarning,0835.1,5.00,000.00,025.9,025.0,000.0,034.1,027.3,19.2,0000.0,0003.41,0009.98,0002.70
2023-11-04 14:42:00,SystemResetWarning,0835.1,5.01,000.00,025.9,025.0,000.0,034.2,027.4,19.0,0000.0,0003.39,0009.95,0002.66
2023-11-04 14:43:00,SystemResetWarning,0835.2,5.00,000.00,025.9,025.0,000.0,034.2,027.4,19.4,0000.0,0003.39,0009.97,0002.61
2023-11-04 14:44:00,SystemResetWarning,0835.1,5.00,000.00,025.9,025.0,000.0,034.2,027.4,19.6,0000.0,0003.36,0009.84,0002.58
2023-11-04 14:45:00,SystemResetWarning,0835.1,5.00,000.00,025.9,025.0,000.0,034.2,027.4,19.6,0000.0,0003.32,0009.57,0002.57
2023-11-04 14:46:00,SystemResetWarning,0835.1,5.00,000.00,025.9,025.1,000.0,034.2,027.5,18.9,0000.0,0003.36,0009.20,0002.59
2023-11-04 14:47:00,SystemResetWarning,0835.1,5.00,000.00,025.9,025.1,000.0,034.2,027.5,18.7,0000.0,0003.42,0009.00,0002.61
2023-11-04 14:48:00,SystemResetWarning,0835.2,5.00,000.00,025.9,025.1,000.0,034.2,027.4,18.6,0000.0,0003.47,0008.43,0002.68
2023-11-04 14:49:00,SystemResetWarning,0835.1,4.99,000.00,026.0,025.1,000.0,034.2,027.5,18.6,0000.0,0003.51,0008.56,0002.74
2023-11-04 14:50:00,SystemResetWarning,0835.1,5.00,000.00,026.0,025.1,000.0,034.2,027.5,18.5,0000.0,0003.56,0008.85,0002.77
2023-11-04 14:51:00,SystemResetWarning,0835.2,5.00,000.00,026.0,025.1,000.0,034.2,027.5,18.3,0000.0,0003.59,0008.88,0002.84
2023-11-04 14:52:00,SystemResetWarning,0835.2,5.00,000.00,026.0,025.1,000.0,034.3,027.5,18.1,0000.0,0003.63,0008.64,0002.91
2023-11-04 14:53:00,SystemResetWarning,0835.1,5.00,000.00,026.0,025.1,000.0,034.3,027.5,18.1,0000.0,0003.65,0008.89,0002.99
2023-11-04 14:54:00,SystemResetWarning,0835.2,5.01,000.00,026.0,025.1,000.0,034.3,027.5,18.1,0000.0,0003.67,0009.02,0003.06
2023-11-04 14:55:00,SystemResetWarning,0835.1,5.00,000.00,026.0,025.1,000.0,034.3,027.5,18.3,0000.0,0003.73,0009.37,0003.11
2023-11-04 14:56:00,SystemResetWarning,0835.1,5.01,000.00,026.0,025.2,000.0,034.3,027.5,18.5,0000.0,0003.74,0009.57,0003.13
2023-11-04 14:57:00,SystemResetWarning,0835.1,5.01,000.00,026.0,025.2,000.0,034.3,027.5,18.3,0000.0,0003.73,0009.03,0003.15
2023-11-04 14:58:00,SystemResetWarning,0835.1,4.99,000.00,026.1,025.2,000.0,034.3,027.6,18.5,0000.0,0003.68,0008.50,0003.15
2023-11-04 14:59:00,SystemResetWarning,0835.2,4.99,000.00,026.1,025.2,000.0,034.3,027.6,18.5,0000.0,0003.68,0008.35,0003.17
